Regional Weather Roundup
Issued by NWS

Home | Current Version | Previous Version | Text Only | Print | Product List | Glossary On
Versions: 1 2 3 4 5 6 7 8 9 10 11 12 13 14 15 16 17 18 19 20 21 22 23 24 25 26 27 28 29 30 31 32 33 34 35 36 37 38 39 40 41 42 43 44 45 46 47 48 49 50
000
ASUS43 KIND 011409
RWRIN

WEATHER ROUNDUP FOR INDIANA
NATIONAL WEATHER SERVICE INDIANAPOLIS IN
900 AM EST SUN FEB 01 2015

NOTE: "FAIR" INDICATES FEW OR NO CLOUDS BELOW 12,000 FEET WITH NO
SIGNIFICANT WEATHER AND/OR OBSTRUCTIONS TO VISIBILITY.

* - STATION DOES NOT REPORT WEATHER SUCH AS PRECIPITATION OR FOG.

+ - STATION NOT QUALITY CONTROLLED BY THE NATIONAL WEATHER SERVICE.
    USE DATA WITH CAUTION...ESPECIALLY DEWPOINT AND RELATIVE
    HUMIDITY OBSERVATIONS.

INZ001>003-010>013-019-020-011500-
NORTHWEST INDIANA

CITY           SKY/WX    TMP DP  RH WIND       PRES   REMARKS
GARY /AIRPORT/ LGT SNOW  34  32  93 CALM      29.93F VSB 1
KNOX *+        CLOUDY    32  30  93 E7        29.93F WCI  26
LA PORTE +     SNOW      33  33 100 E6        29.95F VSB 1/4 WCI  28
MICHIGAN CITY+ SNOW      32  30  93 E5        29.96F VSB 1/2 WCI  27
MONTICELLO +   CLOUDY    32  32  99 SE3       29.93F FOG
RENSSELAER +   LGT SNOW  32  32 100 E7        29.92F WCI  26
VALPARAISO     HVY SNOW  32  31  96 SE10      29.94F VSB 1/4 WCI  24

$$

LMZ046-743>745-011500-
SOUTHERN LAKE MICHIGAN

STATION/POSITION TIME  TEMP WIND        PRES
                       AIR  DIR/SP/G
                 (UTC) (F)  (DEG/KT/KT) (MB)
MICHIGAN CITY    1400   30   60/ 11/ 13   N/A

$$

INZ004-005-014>016-021>024-011500-
NORTH CENTRAL INDIANA

CITY           SKY/WX    TMP DP  RH WIND       PRES   REMARKS
ELKHART        LGT SNOW  30  28  93 E12       29.99F VSB 1   WCI  21
GOSHEN         HVY SNOW  32  31  96 E12       29.98F VSB 1/4 WCI  23
LOGANSPORT +   CLOUDY    32  32 100 E9        29.94F FOG     WCI  24
PERU/GRISSOM   SUNNY     33  32  95 E10       29.93F WCI  25
ROCHESTER +    CLOUDY    34 N/A N/A E6        29.96F HAZE    WCI  29
SOUTH BEND     SNOW      31  29  92 E12       29.98F VSB 1/2 WCI  22
WARSAW +       LGT SNOW  32  32 100 E7        29.97F VSB 3/4 WCI  26

$$

INZ006>009-017-018-025>027-011500-
NORTHEAST INDIANA

CITY           SKY/WX    TMP DP  RH WIND       PRES   REMARKS
ANGOLA *+      CLOUDY    28  27  93 E12       30.03S VSB 1   WCI  18
AUBURN +       SNOW      32  32 100 NE10      30.01F VSB 1/2 WCI  24
FORT WAYNE     CLOUDY    33  32  96 E13       30.00F FOG     WCI  24
HUNTINGTON +   CLOUDY    32  30  91 E8        29.97F FOG     WCI  25

$$

INZ028-029-035-036-043>045-051>053-011500-
WEST CENTRAL INDIANA

CITY           SKY/WX    TMP DP  RH WIND       PRES   REMARKS
CRAWFORDSVL +  LGT SNOW  31  25  76 E7        29.92F WCI  25
GREENCASTLE +  CLOUDY    32  27  80 SE6       29.93R WCI  26
LAFAYETTE      CLOUDY    33  31  92 SE6       29.92F FOG     WCI  28
TERRE HAUTE    LGT SNOW  33  30  88 SE7       29.89F FOG     WCI  27

$$

INZ030>032-037>040-046>048-054>057-064-065-011500-
CENTRAL INDIANA

CITY           SKY/WX    TMP DP  RH WIND       PRES   REMARKS
CP ATTERBURY + CLOUDY    34  28  80 E6        29.94F WCI  29
COLUMBUS       CLOUDY    34  27  75 E8        29.94F WCI  27
FRANKFORT +    CLOUDY    34  34 100 E14       29.93F WCI  24
GREENWOOD *+   CLOUDY    34  27  75 SE10      29.93F WCI  26
INDIANAPOLIS   CLOUDY    32  27  81 SE12      29.92F WCI  23
-EAGLE CREEK   CLOUDY    33  28  81 E6        29.92F WCI  28
KOKOMO *+      CLOUDY    34  30  86 SE13      29.94F WCI  25
MARION +       CLOUDY    33  31  91 E10       29.96F WCI  25
MT COMFORT *+  CLOUDY    34  23  64 SE12      29.93F WCI  25
SHELBYVILLE    CLOUDY    36  28  73 E13       29.94F
ZIONSVILLE +   CLOUDY    33  29  85 E9        29.93F WCI  25

$$

INZ033-034-041-042-049-050-058-059-011500-
EAST CENTRAL INDIANA

CITY           SKY/WX    TMP DP  RH WIND       PRES   REMARKS
MUNCIE         CLOUDY    34  30  85 SE10      29.97F WCI  26

$$

INZ060-061-067>069-081>083-085>088-011500-
SOUTHWEST INDIANA

CITY           SKY/WX    TMP DP  RH WIND       PRES   REMARKS
EVANSVILLE     LGT RAIN  43  30  60 S8        29.86F
HUNTINGBURG *+ CLOUDY    45  25  45 SE9       29.88F
WASHINGTON +   LGT RAIN  36  28  74 E7        29.87F

$$

INZ062-063-066-070>080-084-089>092-011500-
SOUTH CENTRAL AND SOUTHEAST INDIANA

CITY           SKY/WX    TMP DP  RH WIND       PRES   REMARKS
BLOOMINGTON    LGT RAIN  35  25  66 SE3       29.91F
NORTH VERNON + CLOUDY    37  25  60 E6        29.94F
SEYMOUR +      CLOUDY    37  27  65 CALM      29.94F

$$



USA.gov is the U.S. government's official web portal to all federal, state and local government web resources and services.